Time,TemperatureF,DewpointF,PressureIn,WindDirection,WindDirectionDegrees,WindSpeedMPH,WindSpeedGustMPH,Humidity,HourlyPrecipIn,Conditions,Clouds,dailyrainin,SoftwareType,DateUTC
2013-09-15 00:00:00,55.7,46.5,30.13,NNW,341,0.0,1.0,71,0.00,,,0.00,VWS V14.01,2013-09-15 04:00:00,
2013-09-15 00:01:00,55.6,46.4,30.13,NNW,341,0.0,1.0,71,0.00,,,0.00,VWS V14.01,2013-09-15 04:01:00,
2013-09-15 00:06:00,55.6,46.7,30.13,NNW,341,0.0,1.0,72,0.00,,,0.00,VWS V14.01,2013-09-15 04:06:00,
2013-09-15 00:10:00,55.4,46.5,30.13,NNW,341,0.0,1.0,72,0.00,,,0.00,VWS V14.01,2013-09-15 04:10:00,
2013-09-15 00:11:00,55.4,46.5,30.13,NNW,341,0.0,1.0,72,0.00,,,0.00,VWS V14.01,2013-09-15 04:11:00,
2013-09-15 00:16:00,55.3,46.4,30.13,NNW,341,0.0,1.0,72,0.00,,,0.00,VWS V14.01,2013-09-15 04:16:00,
2013-09-15 00:20:00,55.3,46.4,30.13,NNW,341,0.0,1.0,72,0.00,,,0.00,VWS V14.01,2013-09-15 04:20:00,
2013-09-15 00:21:00,55.3,46.8,30.13,NNW,341,0.0,1.0,73,0.00,,,0.00,VWS V14.01,2013-09-15 04:21:00,
2013-09-15 00:26:00,55.1,46.6,30.13,NNW,341,0.0,1.0,73,0.00,,,0.00,VWS V14.01,2013-09-15 04:26:00,
2013-09-15 00:30:00,55.1,46.6,30.13,NNW,341,0.0,1.0,73,0.00,,,0.00,VWS V14.01,2013-09-15 04:30:00,
2013-09-15 00:31:00,55.1,46.6,30.13,NNW,341,0.0,1.0,73,0.00,,,0.00,VWS V14.01,2013-09-15 04:31:00,
2013-09-15 00:36:00,55.0,46.5,30.13,NNW,341,0.0,1.0,73,0.00,,,0.00,VWS V14.01,2013-09-15 04:36:00,
2013-09-15 00:40:00,55.0,46.5,30.13,NNW,341,0.0,1.0,73,0.00,,,0.00,VWS V14.01,2013-09-15 04:40:00,
2013-09-15 00:41:00,55.0,46.9,30.13,NNW,341,0.0,1.0,74,0.00,,,0.00,VWS V14.01,2013-09-15 04:41:00,
2013-09-15 00:46:00,55.0,46.9,30.12,NNW,341,0.0,1.0,74,0.00,,,0.00,VWS V14.01,2013-09-15 04:46:00,
2013-09-15 00:50:00,55.0,46.9,30.12,NNW,341,0.0,1.0,74,0.00,,,0.00,VWS V14.01,2013-09-15 04:50:00,
2013-09-15 00:51:00,55.0,46.9,30.12,NNW,341,0.0,1.0,74,0.00,,,0.00,VWS V14.01,2013-09-15 04:51:00,
2013-09-15 00:56:00,54.8,46.7,30.12,NNW,341,0.0,1.0,74,0.00,,,0.00,VWS V14.01,2013-09-15 04:56:00,
2013-09-15 01:00:00,54.8,46.7,30.12,NNW,341,0.0,1.0,74,0.00,,,0.00,VWS V14.01,2013-09-15 05:00:00,
2013-09-15 01:01:00,54.8,46.7,30.12,NNW,341,0.0,1.0,74,0.00,,,0.00,VWS V14.01,2013-09-15 05:01:00,
2013-09-15 01:06:00,54.7,46.9,30.12,NNW,341,0.0,1.0,75,0.00,,,0.00,VWS V14.01,2013-09-15 05:06:00,
2013-09-15 01:10:00,54.7,46.9,30.12,NNW,341,0.0,1.0,75,0.00,,,0.00,VWS V14.01,2013-09-15 05:10:00,
2013-09-15 01:12:00,54.7,46.9,30.12,NNW,341,0.0,1.0,75,0.00,,,0.00,VWS V14.01,2013-09-15 05:12:00,
2013-09-15 01:17:00,54.5,46.8,30.12,NNW,341,0.0,1.0,75,0.00,,,0.00,VWS V14.01,2013-09-15 05:17:00,
2013-09-15 01:20:00,54.5,46.8,30.12,NNW,341,0.0,1.0,75,0.00,,,0.00,VWS V14.01,2013-09-15 05:20:00,
2013-09-15 01:22:00,54.5,47.1,30.12,NNW,341,0.0,1.0,76,0.00,,,0.00,VWS V14.01,2013-09-15 05:22:00,
2013-09-15 01:27:00,54.4,47.0,30.12,NNW,341,0.0,1.0,76,0.00,,,0.00,VWS V14.01,2013-09-15 05:27:00,
2013-09-15 01:30:00,54.4,47.0,30.12,NNW,341,0.0,1.0,76,0.00,,,0.00,VWS V14.01,2013-09-15 05:30:00,
2013-09-15 01:32:00,54.2,46.8,30.12,NNW,341,0.0,1.0,76,0.00,,,0.00,VWS V14.01,2013-09-15 05:32:00,
2013-09-15 01:37:00,54.1,47.1,30.12,NNW,341,0.0,1.0,77,0.00,,,0.00,VWS V14.01,2013-09-15 05:37:00,
2013-09-15 01:40:00,54.1,47.1,30.12,NNW,341,0.0,1.0,77,0.00,,,0.00,VWS V14.01,2013-09-15 05:40:00,
2013-09-15 01:42:00,53.9,46.9,30.12,NNW,341,0.0,1.0,77,0.00,,,0.00,VWS V14.01,2013-09-15 05:42:00,
2013-09-15 01:47:00,53.8,46.8,30.12,NNW,341,0.0,1.0,77,0.00,,,0.00,VWS V14.01,2013-09-15 05:47:00,
2013-09-15 01:50:00,53.8,47.1,30.12,NNW,341,0.0,1.0,78,0.00,,,0.00,VWS V14.01,2013-09-15 05:50:00,
2013-09-15 01:52:00,53.8,47.1,30.12,NNW,341,0.0,1.0,78,0.00,,,0.00,VWS V14.01,2013-09-15 05:52:00,
2013-09-15 01:57:00,53.6,46.9,30.12,NNW,341,0.0,1.0,78,0.00,,,0.00,VWS V14.01,2013-09-15 05:57:00,
2013-09-15 02:00:00,53.6,46.9,30.12,NNW,341,0.0,1.0,78,0.00,,,0.00,VWS V14.01,2013-09-15 06:00:00,
2013-09-15 02:02:00,53.6,46.9,30.12,NNW,341,0.0,1.0,78,0.00,,,0.00,VWS V14.01,2013-09-15 06:02:00,
2013-09-15 02:07:00,53.5,47.2,30.12,NNW,341,0.0,1.0,79,0.00,,,0.00,VWS V14.01,2013-09-15 06:07:00,
2013-09-15 02:10:00,53.3,47.0,30.12,NNW,341,0.0,1.0,79,0.00,,,0.00,VWS V14.01,2013-09-15 06:10:00,
2013-09-15 02:12:00,53.3,47.0,30.12,NNW,341,0.0,1.0,79,0.00,,,0.00,VWS V14.01,2013-09-15 06:12:00,
2013-09-15 02:17:00,53.3,47.0,30.12,NNW,341,0.0,1.0,79,0.00,,,0.00,VWS V14.01,2013-09-15 06:17:00,
2013-09-15 02:20:00,53.2,47.2,30.12,NNW,341,0.0,1.0,80,0.00,,,0.00,VWS V14.01,2013-09-15 06:20:00,
2013-09-15 02:22:00,53.2,47.2,30.12,NNW,341,0.0,1.0,80,0.00,,,0.00,VWS V14.01,2013-09-15 06:22:00,
2013-09-15 02:27:00,53.1,47.1,30.12,NNW,341,0.0,1.0,80,0.00,,,0.00,VWS V14.01,2013-09-15 06:27:00,
2013-09-15 02:30:00,53.1,47.1,30.12,NNW,341,0.0,1.0,80,0.00,,,0.00,VWS V14.01,2013-09-15 06:30:00,
2013-09-15 02:32:00,53.1,47.1,30.12,NNW,341,0.0,1.0,80,0.00,,,0.00,VWS V14.01,2013-09-15 06:32:00,
2013-09-15 02:37:00,52.9,47.2,30.12,NNW,341,0.0,1.0,81,0.00,,,0.00,VWS V14.01,2013-09-15 06:37:00,
2013-09-15 02:40:00,52.9,47.2,30.12,NNW,341,0.0,1.0,81,0.00,,,0.00,VWS V14.01,2013-09-15 06:40:00,
2013-09-15 02:42:00,52.8,47.1,30.12,NNW,341,0.0,1.0,81,0.00,,,0.00,VWS V14.01,2013-09-15 06:42:00,
2013-09-15 02:47:00,52.8,47.1,30.12,NNW,341,0.0,1.0,81,0.00,,,0.00,VWS V14.01,2013-09-15 06:47:00,
2013-09-15 02:50:00,52.6,46.9,30.12,NNW,341,0.0,1.0,81,0.00,,,0.00,VWS V14.01,2013-09-15 06:50:00,
2013-09-15 02:52:00,52.6,47.3,30.12,NNW,341,0.0,1.0,82,0.00,,,0.00,VWS V14.01,2013-09-15 06:52:00,
2013-09-15 03:07:00,52.3,47.3,30.13,NNW,341,0.0,1.0,83,0.00,,,0.00,VWS V14.01,2013-09-15 07:07:00,
2013-09-15 03:10:00,52.3,47.3,30.13,NNW,341,0.0,1.0,83,0.00,,,0.00,VWS V14.01,2013-09-15 07:10:00,
2013-09-15 03:12:00,52.2,47.2,30.13,NNW,341,0.0,1.0,83,0.00,,,0.00,VWS V14.01,2013-09-15 07:12:00,
2013-09-15 03:17:00,52.2,47.2,30.13,NNW,341,0.0,1.0,83,0.00,,,0.00,VWS V14.01,2013-09-15 07:17:00,
2013-09-15 03:27:00,52.0,47.3,30.13,NNW,341,0.0,1.0,84,0.00,,,0.00,VWS V14.01,2013-09-15 07:27:00,
2013-09-15 03:30:00,52.0,47.3,30.12,NNW,341,0.0,1.0,84,0.00,,,0.00,VWS V14.01,2013-09-15 07:30:00,
2013-09-15 03:32:00,52.0,47.3,30.12,NNW,341,0.0,1.0,84,0.00,,,0.00,VWS V14.01,2013-09-15 07:32:00,
2013-09-15 03:50:00,51.9,47.2,30.13,NNW,341,0.0,1.0,84,0.00,,,0.00,VWS V14.01,2013-09-15 07:50:00,
2013-09-15 03:57:00,52.0,47.3,30.13,NNW,341,0.0,1.0,84,0.00,,,0.00,VWS V14.01,2013-09-15 07:57:00,
2013-09-15 04:00:00,52.0,47.3,30.12,NNW,341,0.0,1.0,84,0.00,,,0.00,VWS V14.01,2013-09-15 08:00:00,
2013-09-15 04:02:00,52.6,47.3,30.12,NNW,341,0.0,1.0,82,0.00,,,0.00,VWS V14.01,2013-09-15 08:02:00,
2013-09-15 04:07:00,52.5,47.2,30.13,NNW,341,0.0,1.0,82,0.00,,,0.00,VWS V14.01,2013-09-15 08:07:00,
2013-09-15 04:25:00,52.2,47.5,30.13,NNW,341,0.0,1.0,84,0.00,,,0.00,VWS V14.01,2013-09-15 08:25:00,
2013-09-15 04:27:00,52.0,47.3,30.12,NNW,341,0.0,1.0,84,0.00,,,0.00,VWS V14.01,2013-09-15 08:27:00,
2013-09-15 04:30:00,52.0,47.3,30.12,NNW,341,0.0,1.0,84,0.00,,,0.00,VWS V14.01,2013-09-15 08:30:00,
2013-09-15 04:42:00,51.9,47.2,30.12,NNW,341,0.0,1.0,84,0.00,,,0.00,VWS V14.01,2013-09-15 08:42:00,
2013-09-15 04:47:00,51.9,47.2,30.12,NNW,341,0.0,1.0,84,0.00,,,0.00,VWS V14.01,2013-09-15 08:47:00,
2013-09-15 04:52:00,51.9,47.2,30.13,NNW,341,0.0,1.0,84,0.00,,,0.00,VWS V14.01,2013-09-15 08:52:00,
2013-09-15 04:57:00,52.0,47.3,30.13,NNW,341,0.0,1.0,84,0.00,,,0.00,VWS V14.01,2013-09-15 08:57:00,
2013-09-15 05:07:00,52.0,47.3,30.12,NNW,341,0.0,1.0,84,0.00,,,0.00,VWS V14.01,2013-09-15 09:07:00,
2013-09-15 05:15:00,52.2,47.5,30.12,NNW,341,0.0,1.0,84,0.00,,,0.00,VWS V14.01,2013-09-15 09:15:00,
2013-09-15 05:22:00,52.0,47.3,30.12,NNW,341,0.0,1.0,84,0.00,,,0.00,VWS V14.01,2013-09-15 09:22:00,
2013-09-15 05:27:00,52.0,47.3,30.12,NNW,341,0.0,1.0,84,0.00,,,0.00,VWS V14.01,2013-09-15 09:27:00,
2013-09-15 05:37:00,52.0,47.3,30.12,NNW,341,0.0,1.0,84,0.00,,,0.00,VWS V14.01,2013-09-15 09:37:00,
2013-09-15 05:42:00,52.0,47.3,30.12,NNW,341,0.0,1.0,84,0.00,,,0.00,VWS V14.01,2013-09-15 09:42:00,
2013-09-15 05:50:00,51.7,47.3,30.13,NNW,341,0.0,1.0,85,0.00,,,0.00,VWS V14.01,2013-09-15 09:50:00,
2013-09-15 05:52:00,52.2,47.5,30.13,NNW,341,0.0,1.0,84,0.00,,,0.00,VWS V14.01,2013-09-15 09:52:00,
2013-09-15 06:02:00,52.0,47.3,30.13,NNW,341,0.0,1.0,84,0.00,,,0.00,VWS V14.01,2013-09-15 10:02:00,
2013-09-15 06:07:00,51.9,47.2,30.13,NNW,341,0.0,1.0,84,0.00,,,0.00,VWS V14.01,2013-09-15 10:07:00,
2013-09-15 06:10:00,51.6,47.6,30.13,NNW,341,0.0,1.0,86,0.00,,,0.00,VWS V14.01,2013-09-15 10:10:00,
2013-09-15 06:13:00,51.6,47.6,30.13,NNW,341,0.0,1.0,86,0.00,,,0.00,VWS V14.01,2013-09-15 10:13:00,
2013-09-15 06:15:00,51.9,47.2,30.13,NNW,341,0.0,1.0,84,0.00,,,0.00,VWS V14.01,2013-09-15 10:15:00,
2013-09-15 06:22:00,51.7,47.3,30.13,NNW,341,0.0,1.0,85,0.00,,,0.00,VWS V14.01,2013-09-15 10:22:00,
2013-09-15 06:30:00,51.6,47.6,30.14,NNW,341,0.0,1.0,86,0.00,,,0.00,VWS V14.01,2013-09-15 10:30:00,
2013-09-15 06:32:00,51.7,47.3,30.13,NNW,341,0.0,1.0,85,0.00,,,0.00,VWS V14.01,2013-09-15 10:32:00,
2013-09-15 06:33:00,51.6,47.6,30.14,NNW,341,0.0,1.0,86,0.00,,,0.00,VWS V14.01,2013-09-15 10:33:00,
2013-09-15 06:37:00,51.7,47.3,30.13,NNW,341,0.0,1.0,85,0.00,,,0.00,VWS V14.01,2013-09-15 10:37:00,
2013-09-15 06:45:00,51.7,47.3,30.13,NNW,341,0.0,1.0,85,0.00,,,0.00,VWS V14.01,2013-09-15 10:45:00,
2013-09-15 06:48:00,51.7,47.7,30.14,NNW,341,0.0,1.0,86,0.00,,,0.00,VWS V14.01,2013-09-15 10:48:00,
2013-09-15 06:52:00,51.7,47.3,30.13,NNW,341,0.0,1.0,85,0.00,,,0.00,VWS V14.01,2013-09-15 10:52:00,
2013-09-15 06:57:00,51.7,47.3,30.13,NNW,341,0.0,1.0,85,0.00,,,0.00,VWS V14.01,2013-09-15 10:57:00,
2013-09-15 07:02:00,51.6,47.2,30.13,NNW,341,0.0,1.0,85,0.00,,,0.00,VWS V14.01,2013-09-15 11:02:00,
2013-09-15 07:03:00,52.5,47.8,30.15,NNW,341,0.0,1.0,84,0.00,,,0.00,VWS V14.01,2013-09-15 11:03:00,
2013-09-15 07:07:00,51.6,47.2,30.13,NNW,341,0.0,1.0,85,0.00,,,0.00,VWS V14.01,2013-09-15 11:07:00,
2013-09-15 07:18:00,53.1,48.4,30.14,NNW,341,0.0,1.0,84,0.00,,,0.00,VWS V14.01,2013-09-15 11:18:00,
2013-09-15 07:23:00,51.6,47.6,30.14,NNW,341,0.0,1.0,86,0.00,,,0.00,VWS V14.01,2013-09-15 11:23:00,
2013-09-15 07:28:00,51.6,47.6,30.14,NNW,341,0.0,1.0,86,0.00,,,0.00,VWS V14.01,2013-09-15 11:28:00,
2013-09-15 07:30:00,53.6,48.6,30.15,NNW,341,0.0,1.0,83,0.00,,,0.00,VWS V14.01,2013-09-15 11:30:00,
2013-09-15 07:33:00,51.6,47.6,30.14,NNW,341,0.0,1.0,86,0.00,,,0.00,VWS V14.01,2013-09-15 11:33:00,
2013-09-15 07:40:00,54.4,48.7,30.15,NNW,341,0.0,1.0,81,0.00,,,0.00,VWS V14.01,2013-09-15 11:40:00,
2013-09-15 07:43:00,51.6,47.6,30.14,NNW,341,0.0,1.0,86,0.00,,,0.00,VWS V14.01,2013-09-15 11:43:00,
2013-09-15 07:48:00,51.7,47.7,30.14,NNW,341,0.0,1.0,86,0.00,,,0.00,VWS V14.01,2013-09-15 11:48:00,
2013-09-15 07:50:00,55.1,48.7,30.14,NNW,341,0.0,1.0,79,0.00,,,0.00,VWS V14.01,2013-09-15 11:50:00,
2013-09-15 07:55:00,51.9,47.8,30.14,NNW,341,0.0,1.0,86,0.00,,,0.00,VWS V14.01,2013-09-15 11:55:00,
2013-09-15 08:03:00,52.2,47.8,30.14,NNW,341,0.0,1.0,85,0.00,,,0.00,VWS V14.01,2013-09-15 12:03:00,
2013-09-15 08:13:00,52.6,48.2,30.15,NNW,341,0.0,1.0,85,0.00,,,0.00,VWS V14.01,2013-09-15 12:13:00,
2013-09-15 08:18:00,52.9,48.2,30.15,NNW,341,0.0,1.0,84,0.00,,,0.00,VWS V14.01,2013-09-15 12:18:00,
2013-09-15 08:20:00,57.3,50.2,30.15,NNW,341,0.0,1.0,77,0.00,,,0.00,VWS V14.01,2013-09-15 12:20:00,
2013-09-15 08:25:00,53.2,48.2,30.14,NNW,341,0.0,1.0,83,0.00,,,0.00,VWS V14.01,2013-09-15 12:25:00,
2013-09-15 08:43:00,54.2,48.8,30.15,NNW,341,0.0,1.0,82,0.00,,,0.00,VWS V14.01,2013-09-15 12:43:00,
2013-09-15 08:58:00,55.4,49.3,30.14,NNW,341,0.0,1.0,80,0.00,,,0.00,VWS V14.01,2013-09-15 12:58:00,
2013-09-15 09:03:00,55.9,49.2,30.14,NNW,341,0.0,1.0,78,0.00,,,0.00,VWS V14.01,2013-09-15 13:03:00,
2013-09-15 09:08:00,56.2,49.4,30.14,NNW,341,0.0,1.0,78,0.00,,,0.00,VWS V14.01,2013-09-15 13:08:00,
2013-09-15 09:13:00,56.5,50.1,30.14,NNW,341,0.0,1.0,79,0.00,,,0.00,VWS V14.01,2013-09-15 13:13:00,
2013-09-15 09:18:00,65.3,53.7,30.16,South,180,0.0,1.0,66,0.00,,,0.00,VWS V14.01,2013-09-15 13:18:00,
2013-09-15 09:28:00,57.6,50.5,30.15,NNW,341,0.0,1.0,77,0.00,,,0.00,VWS V14.01,2013-09-15 13:28:00,
2013-09-15 09:33:00,58.3,50.8,30.15,NNW,341,0.0,1.0,76,0.00,,,0.00,VWS V14.01,2013-09-15 13:33:00,
2013-09-15 09:38:00,58.9,51.4,30.15,NNW,341,0.0,1.0,76,0.00,,,0.00,VWS V14.01,2013-09-15 13:38:00,
2013-09-15 09:43:00,59.3,51.4,30.15,NNW,341,0.0,1.0,75,0.00,,,0.00,VWS V14.01,2013-09-15 13:43:00,
2013-09-15 09:48:00,60.2,51.9,30.15,NNW,341,0.0,1.0,74,0.00,,,0.00,VWS V14.01,2013-09-15 13:48:00,
2013-09-15 09:53:00,61.2,51.7,30.16,NNW,341,0.0,1.0,71,0.00,,,0.00,VWS V14.01,2013-09-15 13:53:00,
2013-09-15 09:58:00,62.1,52.2,30.16,NNW,341,0.0,1.0,70,0.00,,,0.00,VWS V14.01,2013-09-15 13:58:00,
2013-09-15 10:03:00,62.7,52.0,30.16,NNW,340,0.0,1.0,68,0.00,,,0.00,VWS V14.01,2013-09-15 14:03:00,
2013-09-15 10:08:00,63.4,52.3,30.16,NNW,340,0.0,1.0,67,0.00,,,0.00,VWS V14.01,2013-09-15 14:08:00,
2013-09-15 10:13:00,64.0,52.8,30.16,NNW,340,0.0,1.0,67,0.00,,,0.00,VWS V14.01,2013-09-15 14:13:00,
2013-09-15 10:25:00,65.5,53.4,30.16,South,180,0.0,1.0,65,0.00,,,0.00,VWS V14.01,2013-09-15 14:25:00,
2013-09-15 10:28:00,70.3,56.2,30.16,SW,219,0.0,1.0,61,0.00,,,0.00,VWS V14.01,2013-09-15 14:28:00,
2013-09-15 10:33:00,66.6,54.1,30.16,South,174,0.0,1.0,64,0.00,,,0.00,VWS V14.01,2013-09-15 14:33:00,
2013-09-15 10:38:00,66.9,53.9,30.17,SSW,211,0.0,1.0,63,0.00,,,0.00,VWS V14.01,2013-09-15 14:38:00,
2013-09-15 10:45:00,67.1,54.1,30.17,SSW,211,1.0,1.0,63,0.00,,,0.00,VWS V14.01,2013-09-15 14:45:00,
2013-09-15 10:53:00,67.6,54.6,30.16,SSW,211,0.0,1.0,63,0.00,,,0.00,VWS V14.01,2013-09-15 14:53:00,
2013-09-15 10:58:00,68.1,54.6,30.16,SSW,211,0.0,1.0,62,0.00,,,0.00,VWS V14.01,2013-09-15 14:58:00,
2013-09-15 11:03:00,68.6,54.6,30.16,SSW,211,0.0,1.0,61,0.00,,,0.00,VWS V14.01,2013-09-15 15:03:00,
2013-09-15 11:08:00,69.1,54.7,30.16,SSW,211,0.0,1.0,60,0.00,,,0.00,VWS V14.01,2013-09-15 15:08:00,
2013-09-15 11:10:00,74.7,57.0,30.15,SW,224,0.0,1.0,54,0.00,,,0.00,VWS V14.01,2013-09-15 15:10:00,
2013-09-15 11:15:00,69.3,54.8,30.16,South,184,0.0,1.0,60,0.00,,,0.00,VWS V14.01,2013-09-15 15:15:00,
2013-09-15 11:23:00,69.6,55.6,30.16,SW,219,0.0,1.0,61,0.00,,,0.00,VWS V14.01,2013-09-15 15:23:00,
2013-09-15 11:28:00,69.8,55.3,30.16,SW,219,0.0,1.0,60,0.00,,,0.00,VWS V14.01,2013-09-15 15:28:00,
2013-09-15 11:30:00,76.3,57.9,30.14,SSW,213,0.0,1.0,53,0.00,,,0.00,VWS V14.01,2013-09-15 15:30:00,
2013-09-15 11:35:00,70.4,55.9,30.15,SW,219,0.0,1.0,60,0.00,,,0.00,VWS V14.01,2013-09-15 15:35:00,
2013-09-15 11:43:00,71.6,56.5,30.15,SW,219,0.0,1.0,59,0.00,,,0.00,VWS V14.01,2013-09-15 15:43:00,
2013-09-15 11:48:00,72.3,56.2,30.15,SW,219,1.0,1.0,57,0.00,,,0.00,VWS V14.01,2013-09-15 15:48:00,
2013-09-15 11:53:00,72.8,56.2,30.15,SW,219,0.0,1.0,56,0.00,,,0.00,VWS V14.01,2013-09-15 15:53:00,
2013-09-15 11:54:00,74.2,57.5,30.14,SSW,193,1.0,1.0,56,0.00,,,0.00,VWS V14.01,2013-09-15 15:54:00,
2013-09-15 11:58:00,73.2,56.6,30.15,SSE,165,0.0,1.0,56,0.00,,,0.00,VWS V14.01,2013-09-15 15:58:00,
2013-09-15 12:03:00,73.9,57.2,30.15,SSE,165,0.0,1.0,56,0.00,,,0.00,VWS V14.01,2013-09-15 16:03:00,
2013-09-15 12:08:00,74.6,57.4,30.15,SW,223,1.0,1.0,55,0.00,,,0.00,VWS V14.01,2013-09-15 16:08:00,
2013-09-15 12:13:00,74.7,57.0,30.15,SW,224,1.0,1.0,54,0.00,,,0.00,VWS V14.01,2013-09-15 16:13:00,
2013-09-15 12:18:00,74.9,57.2,30.15,SSE,158,0.0,1.0,54,0.00,,,0.00,VWS V14.01,2013-09-15 16:18:00,
2013-09-15 12:23:00,75.3,58.0,30.14,SSE,158,0.0,1.0,55,0.00,,,0.00,VWS V14.01,2013-09-15 16:23:00,
2013-09-15 12:28:00,76.0,57.7,30.14,South,188,0.0,1.0,53,0.00,,,0.00,VWS V14.01,2013-09-15 16:28:00,
2013-09-15 12:33:00,76.3,57.4,30.14,SSW,213,0.0,1.0,52,0.00,,,0.00,VWS V14.01,2013-09-15 16:33:00,
2013-09-15 12:38:00,76.0,57.7,30.14,SSW,192,0.0,1.0,53,0.00,,,0.00,VWS V14.01,2013-09-15 16:38:00,
2013-09-15 12:39:00,74.7,57.5,30.13,SW,223,4.0,4.0,55,0.00,,,0.00,VWS V14.01,2013-09-15 16:39:00,
2013-09-15 12:44:00,75.6,58.3,30.14,SSW,192,0.0,1.0,55,0.00,,,0.00,VWS V14.01,2013-09-15 16:44:00,
2013-09-15 12:49:00,75.6,58.3,30.14,SSW,192,0.0,1.0,55,0.00,,,0.00,VWS V14.01,2013-09-15 16:49:00,
2013-09-15 12:50:00,75.3,57.5,30.12,SW,232,1.0,1.0,54,0.00,,,0.00,VWS V14.01,2013-09-15 16:50:00,
2013-09-15 12:54:00,75.1,57.3,30.14,SW,220,2.0,2.0,54,0.00,,,0.00,VWS V14.01,2013-09-15 16:54:00,
2013-09-15 13:04:00,73.7,57.0,30.14,SSW,209,2.0,2.0,56,0.00,,,0.00,VWS V14.01,2013-09-15 17:04:00,
2013-09-15 13:09:00,73.7,57.0,30.13,SW,221,4.0,4.0,56,0.00,,,0.00,VWS V14.01,2013-09-15 17:09:00,
2013-09-15 13:10:00,76.1,57.8,30.12,WSW,246,0.0,1.0,53,0.00,,,0.00,VWS V14.01,2013-09-15 17:10:00,
2013-09-15 13:14:00,73.7,57.0,30.13,SW,221,1.0,1.0,56,0.00,,,0.00,VWS V14.01,2013-09-15 17:14:00,
2013-09-15 13:19:00,73.9,57.2,30.13,SSW,213,1.0,1.0,56,0.00,,,0.00,VWS V14.01,2013-09-15 17:19:00,
2013-09-15 13:24:00,74.2,57.0,30.13,SW,216,3.0,3.0,55,0.00,,,0.00,VWS V14.01,2013-09-15 17:24:00,
2013-09-15 13:29:00,74.4,57.7,30.13,SW,219,0.0,1.0,56,0.00,,,0.00,VWS V14.01,2013-09-15 17:29:00,
2013-09-15 13:34:00,74.6,56.9,30.13,SW,225,0.0,1.0,54,0.00,,,0.00,VWS V14.01,2013-09-15 17:34:00,
2013-09-15 13:39:00,74.6,56.9,30.13,SSW,210,0.0,1.0,54,0.00,,,0.00,VWS V14.01,2013-09-15 17:39:00,
2013-09-15 13:45:00,74.7,57.5,30.13,SW,222,5.0,5.0,55,0.00,,,0.00,VWS V14.01,2013-09-15 17:45:00,
2013-09-15 13:54:00,75.1,57.3,30.12,SW,232,3.0,3.0,54,0.00,,,0.00,VWS V14.01,2013-09-15 17:54:00,
2013-09-15 13:59:00,75.6,57.3,30.12,SW,232,0.0,1.0,53,0.00,,,0.00,VWS V14.01,2013-09-15 17:59:00,
2013-09-15 14:04:00,76.0,57.1,30.12,SW,225,0.0,1.0,52,0.00,,,0.00,VWS V14.01,2013-09-15 18:04:00,
2013-09-15 14:09:00,76.0,57.1,30.12,SW,225,1.0,1.0,52,0.00,,,0.00,VWS V14.01,2013-09-15 18:09:00,
2013-09-15 14:14:00,76.1,57.8,30.12,WSW,248,1.0,1.0,53,0.00,,,0.00,VWS V14.01,2013-09-15 18:14:00,
2013-09-15 14:19:00,76.7,57.2,30.12,SW,223,5.0,5.0,51,0.00,,,0.00,VWS V14.01,2013-09-15 18:19:00,
2013-09-15 14:24:00,76.5,57.0,30.12,SSW,213,3.0,3.0,51,0.00,,,0.00,VWS V14.01,2013-09-15 18:24:00,
2013-09-15 14:29:00,76.1,57.2,30.12,WSW,245,0.0,1.0,52,0.00,,,0.00,VWS V14.01,2013-09-15 18:29:00,
2013-09-15 14:34:00,76.3,56.9,30.11,SW,228,0.0,1.0,51,0.00,,,0.00,VWS V14.01,2013-09-15 18:34:00,
2013-09-15 14:39:00,76.5,57.6,30.11,SW,221,1.0,1.0,52,0.00,,,0.00,VWS V14.01,2013-09-15 18:39:00,
2013-09-15 14:44:00,76.1,57.2,30.11,SSW,210,0.0,1.0,52,0.00,,,0.00,VWS V14.01,2013-09-15 18:44:00,
2013-09-15 14:49:00,76.0,57.7,30.11,SW,215,0.0,1.0,53,0.00,,,0.00,VWS V14.01,2013-09-15 18:49:00,
2013-09-15 14:54:00,75.8,57.5,30.11,SW,220,3.0,3.0,53,0.00,,,0.00,VWS V14.01,2013-09-15 18:54:00,
2013-09-15 14:59:00,75.8,56.9,30.11,SW,220,1.0,1.0,52,0.00,,,0.00,VWS V14.01,2013-09-15 18:59:00,
2013-09-15 15:04:00,75.8,56.9,30.10,SW,225,0.0,1.0,52,0.00,,,0.00,VWS V14.01,2013-09-15 19:04:00,
2013-09-15 15:09:00,75.8,57.5,30.10,South,183,1.0,1.0,53,0.00,,,0.00,VWS V14.01,2013-09-15 19:09:00,
2013-09-15 15:10:00,76.1,57.8,30.09,SW,217,0.0,1.0,53,0.00,,,0.00,VWS V14.01,2013-09-15 19:10:00,
2013-09-15 15:14:00,75.8,56.9,30.10,SW,225,2.0,2.0,52,0.00,,,0.00,VWS V14.01,2013-09-15 19:14:00,
2013-09-15 15:19:00,75.8,57.5,30.10,SW,222,0.0,1.0,53,0.00,,,0.00,VWS V14.01,2013-09-15 19:19:00,
2013-09-15 15:24:00,75.8,57.5,30.10,SW,220,1.0,1.0,53,0.00,,,0.00,VWS V14.01,2013-09-15 19:24:00,
2013-09-15 15:34:00,76.1,56.1,30.10,SSW,209,2.0,2.0,50,0.00,,,0.00,VWS V14.01,2013-09-15 19:34:00,
2013-09-15 15:39:00,76.1,56.7,30.08,SSW,206,0.0,1.0,51,0.00,,,0.00,VWS V14.01,2013-09-15 19:39:00,
2013-09-15 15:44:00,75.8,56.4,30.10,SW,225,1.0,1.0,51,0.00,,,0.00,VWS V14.01,2013-09-15 19:44:00,
2013-09-15 15:49:00,75.8,57.5,30.09,SW,225,0.0,1.0,53,0.00,,,0.00,VWS V14.01,2013-09-15 19:49:00,
2013-09-15 15:54:00,76.0,57.1,30.09,SW,225,1.0,1.0,52,0.00,,,0.00,VWS V14.01,2013-09-15 19:54:00,
2013-09-15 16:00:00,76.1,56.1,30.08,SW,221,2.0,2.0,50,0.00,,,0.00,VWS V14.01,2013-09-15 20:00:00,
2013-09-15 16:05:00,76.1,56.7,30.09,SW,234,5.0,5.0,51,0.00,,,0.00,VWS V14.01,2013-09-15 20:05:00,
2013-09-15 16:19:00,76.1,57.2,30.08,SW,216,0.0,1.0,52,0.00,,,0.00,VWS V14.01,2013-09-15 20:19:00,
2013-09-15 16:24:00,76.1,56.7,30.08,SW,223,3.0,3.0,51,0.00,,,0.00,VWS V14.01,2013-09-15 20:24:00,
2013-09-15 16:29:00,76.1,57.2,30.08,SW,220,4.0,4.0,52,0.00,,,0.00,VWS V14.01,2013-09-15 20:29:00,
2013-09-15 16:34:00,76.0,57.1,30.08,SW,217,0.0,1.0,52,0.00,,,0.00,VWS V14.01,2013-09-15 20:34:00,
2013-09-15 16:39:00,76.1,56.7,30.08,SW,224,1.0,1.0,51,0.00,,,0.00,VWS V14.01,2013-09-15 20:39:00,
2013-09-15 16:40:00,76.1,56.7,30.07,SW,219,0.0,1.0,51,0.00,,,0.00,VWS V14.01,2013-09-15 20:40:00,
2013-09-15 16:45:00,76.1,56.7,30.08,SSW,206,0.0,1.0,51,0.00,,,0.00,VWS V14.01,2013-09-15 20:45:00,
2013-09-15 16:54:00,76.3,56.9,30.08,SW,225,0.0,1.0,51,0.00,,,0.00,VWS V14.01,2013-09-15 20:54:00,
2013-09-15 16:55:00,76.3,56.9,30.07,SW,224,1.0,1.0,51,0.00,,,0.00,VWS V14.01,2013-09-15 20:55:00,
2013-09-15 17:00:00,76.3,56.3,30.08,SW,224,0.0,1.0,50,0.00,,,0.00,VWS V14.01,2013-09-15 21:00:00,
2013-09-15 17:05:00,76.1,56.1,30.08,SW,221,1.0,1.0,50,0.00,,,0.00,VWS V14.01,2013-09-15 21:05:00,
2013-09-15 17:15:00,76.5,57.0,30.08,SW,221,0.0,1.0,51,0.00,,,0.00,VWS V14.01,2013-09-15 21:15:00,
2013-09-15 17:20:00,76.7,56.7,30.07,SW,225,2.0,2.0,50,0.00,,,0.00,VWS V14.01,2013-09-15 21:20:00,
2013-09-15 17:25:00,76.5,57.6,30.07,SSW,198,0.0,1.0,52,0.00,,,0.00,VWS V14.01,2013-09-15 21:25:00,
2013-09-15 17:30:00,76.3,56.9,30.07,SW,220,1.0,1.0,51,0.00,,,0.00,VWS V14.01,2013-09-15 21:30:00,
2013-09-15 17:35:00,76.1,56.7,30.07,SW,215,0.0,1.0,51,0.00,,,0.00,VWS V14.01,2013-09-15 21:35:00,
2013-09-15 17:40:00,76.1,56.1,30.07,SW,219,0.0,1.0,50,0.00,,,0.00,VWS V14.01,2013-09-15 21:40:00,
2013-09-15 17:50:00,76.5,56.5,30.07,SW,225,2.0,2.0,50,0.00,,,0.00,VWS V14.01,2013-09-15 21:50:00,
2013-09-15 17:55:00,76.5,57.0,30.07,SW,232,3.0,3.0,51,0.00,,,0.00,VWS V14.01,2013-09-15 21:55:00,
2013-09-15 18:05:00,76.0,56.6,30.08,SSW,213,0.0,1.0,51,0.00,,,0.00,VWS V14.01,2013-09-15 22:05:00,
2013-09-15 18:10:00,76.0,56.6,30.08,SW,215,0.0,1.0,51,0.00,,,0.00,VWS V14.01,2013-09-15 22:10:00,
2013-09-15 18:15:00,76.0,56.6,30.08,SW,221,3.0,3.0,51,0.00,,,0.00,VWS V14.01,2013-09-15 22:15:00,
2013-09-15 18:20:00,76.0,57.1,30.07,SW,220,0.0,1.0,52,0.00,,,0.00,VWS V14.01,2013-09-15 22:20:00,
2013-09-15 18:25:00,73.7,58.5,30.08,SW,229,0.0,1.0,59,0.00,,,0.00,VWS V14.01,2013-09-15 22:25:00,
2013-09-15 18:30:00,76.0,57.1,30.07,SSW,203,0.0,1.0,52,0.00,,,0.00,VWS V14.01,2013-09-15 22:30:00,
2013-09-15 18:35:00,75.8,56.9,30.07,SW,214,0.0,1.0,52,0.00,,,0.00,VWS V14.01,2013-09-15 22:35:00,
2013-09-15 18:45:00,75.6,57.8,30.07,SSW,201,0.0,1.0,54,0.00,,,0.00,VWS V14.01,2013-09-15 22:45:00,
2013-09-15 18:50:00,75.4,57.6,30.08,SW,221,0.0,1.0,54,0.00,,,0.00,VWS V14.01,2013-09-15 22:50:00,
2013-09-15 18:55:00,75.3,58.0,30.08,SW,221,0.0,1.0,55,0.00,,,0.00,VWS V14.01,2013-09-15 22:55:00,
2013-09-15 19:00:00,75.1,57.8,30.08,SSW,204,1.0,1.0,55,0.00,,,0.00,VWS V14.01,2013-09-15 23:00:00,
2013-09-15 19:05:00,74.9,58.2,30.08,SW,229,0.0,1.0,56,0.00,,,0.00,VWS V14.01,2013-09-15 23:05:00,
2013-09-15 19:10:00,74.7,58.0,30.08,SW,230,0.0,1.0,56,0.00,,,0.00,VWS V14.01,2013-09-15 23:10:00,
2013-09-15 19:15:00,74.6,57.9,30.08,SW,229,0.0,1.0,56,0.00,,,0.00,VWS V14.01,2013-09-15 23:15:00,
2013-09-15 19:20:00,74.4,58.2,30.08,SW,229,0.0,1.0,57,0.00,,,0.00,VWS V14.01,2013-09-15 23:20:00,
2013-09-15 19:25:00,74.0,58.3,30.08,SW,229,0.0,1.0,58,0.00,,,0.00,VWS V14.01,2013-09-15 23:25:00,
2013-09-15 19:35:00,73.5,58.3,30.07,SW,229,0.0,1.0,59,0.00,,,0.00,VWS V14.01,2013-09-15 23:35:00,
2013-09-15 19:40:00,73.2,58.5,30.07,SW,229,0.0,1.0,60,0.00,,,0.00,VWS V14.01,2013-09-15 23:40:00,
2013-09-15 19:45:00,72.8,58.1,30.07,SW,229,0.0,1.0,60,0.00,,,0.00,VWS V14.01,2013-09-15 23:45:00,
2013-09-15 19:50:00,68.9,58.7,30.08,SW,229,0.0,1.0,70,0.00,,,0.00,VWS V14.01,2013-09-15 23:50:00,
2013-09-15 19:55:00,72.5,58.3,30.08,SW,229,0.0,1.0,61,0.00,,,0.00,VWS V14.01,2013-09-15 23:55:00,
2013-09-15 20:00:00,72.1,58.4,30.08,SW,229,0.0,1.0,62,0.00,,,0.00,VWS V14.01,2013-09-16 00:00:00,
2013-09-15 20:05:00,71.8,58.5,30.08,SW,229,0.0,1.0,63,0.00,,,0.00,VWS V14.01,2013-09-16 00:05:00,
2013-09-15 20:10:00,71.6,58.3,30.08,SW,229,0.0,1.0,63,0.00,,,0.00,VWS V14.01,2013-09-16 00:10:00,
2013-09-15 20:15:00,71.3,58.5,30.08,SW,229,0.0,1.0,64,0.00,,,0.00,VWS V14.01,2013-09-16 00:15:00,
2013-09-15 20:20:00,70.9,58.6,30.08,SW,229,0.0,1.0,65,0.00,,,0.00,VWS V14.01,2013-09-16 00:20:00,
2013-09-15 20:25:00,70.8,58.5,30.08,SW,229,0.0,1.0,65,0.00,,,0.00,VWS V14.01,2013-09-16 00:25:00,
2013-09-15 20:30:00,70.4,58.5,30.08,SW,229,0.0,1.0,66,0.00,,,0.00,VWS V14.01,2013-09-16 00:30:00,
2013-09-15 20:35:00,70.1,58.7,30.08,SW,229,0.0,1.0,67,0.00,,,0.00,VWS V14.01,2013-09-16 00:35:00,
2013-09-15 20:40:00,69.8,58.8,30.08,SW,229,0.0,1.0,68,0.00,,,0.00,VWS V14.01,2013-09-16 00:40:00,
2013-09-15 20:45:00,69.4,58.4,30.08,SW,229,0.0,1.0,68,0.00,,,0.00,VWS V14.01,2013-09-16 00:45:00,
2013-09-15 20:55:00,68.9,58.7,30.08,SW,229,0.0,1.0,70,0.00,,,0.00,VWS V14.01,2013-09-16 00:55:00,
2013-09-15 21:00:00,68.8,58.6,30.08,SW,229,0.0,1.0,70,0.00,,,0.00,VWS V14.01,2013-09-16 01:00:00,
2013-09-15 21:05:00,68.8,58.6,30.08,SW,229,0.0,1.0,70,0.00,,,0.00,VWS V14.01,2013-09-16 01:05:00,
2013-09-15 21:15:00,68.6,58.8,30.08,SW,229,0.0,1.0,71,0.00,,,0.00,VWS V14.01,2013-09-16 01:15:00,
2013-09-15 21:20:00,68.6,58.4,30.08,SW,229,0.0,1.0,70,0.00,,,0.00,VWS V14.01,2013-09-16 01:20:00,
2013-09-15 21:25:00,68.4,58.6,30.08,SW,229,0.0,1.0,71,0.00,,,0.00,VWS V14.01,2013-09-16 01:25:00,
2013-09-15 21:30:00,68.4,58.6,30.08,SW,229,0.0,1.0,71,0.00,,,0.00,VWS V14.01,2013-09-16 01:30:00,
2013-09-15 21:36:00,68.3,58.5,30.08,SW,229,0.0,1.0,71,0.00,,,0.00,VWS V14.01,2013-09-16 01:36:00,
2013-09-15 21:41:00,68.1,58.3,30.08,SW,229,0.0,1.0,71,0.00,,,0.00,VWS V14.01,2013-09-16 01:41:00,
2013-09-15 21:46:00,67.9,58.5,30.08,SW,229,0.0,1.0,72,0.00,,,0.00,VWS V14.01,2013-09-16 01:46:00,
2013-09-15 21:51:00,67.8,58.5,30.08,SW,229,0.0,1.0,72,0.00,,,0.00,VWS V14.01,2013-09-16 01:51:00,
2013-09-15 21:56:00,67.6,59.0,30.08,SW,229,0.0,1.0,74,0.00,,,0.00,VWS V14.01,2013-09-16 01:56:00,
2013-09-15 22:01:00,67.3,58.7,30.08,SW,229,0.0,1.0,74,0.00,,,0.00,VWS V14.01,2013-09-16 02:01:00,
2013-09-15 22:06:00,67.1,58.5,30.08,SW,229,0.0,1.0,74,0.00,,,0.00,VWS V14.01,2013-09-16 02:06:00,
2013-09-15 22:11:00,66.9,58.7,30.08,SW,229,0.0,1.0,75,0.00,,,0.00,VWS V14.01,2013-09-16 02:11:00,
2013-09-15 22:16:00,66.8,58.6,30.08,SW,229,0.0,1.0,75,0.00,,,0.00,VWS V14.01,2013-09-16 02:16:00,
2013-09-15 22:21:00,66.6,58.8,30.08,SW,229,0.0,1.0,76,0.00,,,0.00,VWS V14.01,2013-09-16 02:21:00,
2013-09-15 22:26:00,66.6,58.8,30.08,SW,229,0.0,1.0,76,0.00,,,0.00,VWS V14.01,2013-09-16 02:26:00,
2013-09-15 22:31:00,66.4,58.6,30.08,SW,229,0.0,1.0,76,0.00,,,0.00,VWS V14.01,2013-09-16 02:31:00,
2013-09-15 22:36:00,66.4,59.0,30.08,SW,229,0.0,1.0,77,0.00,,,0.00,VWS V14.01,2013-09-16 02:36:00,
2013-09-15 22:41:00,66.3,58.9,30.08,SW,229,0.0,1.0,77,0.00,,,0.00,VWS V14.01,2013-09-16 02:41:00,
2013-09-15 22:46:00,66.1,58.7,30.08,SW,229,0.0,1.0,77,0.00,,,0.00,VWS V14.01,2013-09-16 02:46:00,
2013-09-15 22:51:00,66.0,59.0,30.08,SW,229,0.0,1.0,78,0.00,,,0.00,VWS V14.01,2013-09-16 02:51:00,
2013-09-15 22:56:00,66.0,59.0,30.08,SW,229,0.0,1.0,78,0.00,,,0.00,VWS V14.01,2013-09-16 02:56:00,
2013-09-15 23:00:00,65.8,58.8,30.08,SW,229,0.0,1.0,78,0.00,,,0.00,VWS V14.01,2013-09-16 03:00:00,
2013-09-15 23:01:00,66.0,59.0,30.08,SW,229,0.0,1.0,78,0.00,,,0.00,VWS V14.01,2013-09-16 03:01:00,
2013-09-15 23:06:00,65.8,58.8,30.08,SW,229,0.0,1.0,78,0.00,,,0.00,VWS V14.01,2013-09-16 03:06:00,
2013-09-15 23:10:00,65.3,58.6,30.08,SW,229,0.0,1.0,79,0.00,,,0.00,VWS V14.01,2013-09-16 03:10:00,
2013-09-15 23:11:00,65.8,59.1,30.08,SW,229,0.0,1.0,79,0.00,,,0.00,VWS V14.01,2013-09-16 03:11:00,
2013-09-15 23:16:00,65.6,58.9,30.08,SW,229,0.0,1.0,79,0.00,,,0.00,VWS V14.01,2013-09-16 03:16:00,
2013-09-15 23:20:00,65.0,58.7,30.08,SW,229,0.0,1.0,80,0.00,,,0.00,VWS V14.01,2013-09-16 03:20:00,
2013-09-15 23:21:00,65.6,58.6,30.07,SW,229,0.0,1.0,78,0.00,,,0.00,VWS V14.01,2013-09-16 03:21:00,
2013-09-15 23:26:00,65.8,58.4,30.07,SW,229,0.0,1.0,77,0.00,,,0.00,VWS V14.01,2013-09-16 03:26:00,
2013-09-15 23:30:00,64.5,58.5,30.09,SW,229,0.0,1.0,81,0.00,,,0.00,VWS V14.01,2013-09-16 03:30:00,
2013-09-15 23:31:00,66.1,58.7,30.07,SW,229,0.0,1.0,77,0.00,,,0.00,VWS V14.01,2013-09-16 03:31:00,
2013-09-15 23:36:00,66.3,58.9,30.08,SW,229,0.0,1.0,77,0.00,,,0.00,VWS V14.01,2013-09-16 03:36:00,
2013-09-15 23:40:00,64.2,58.6,30.09,SW,229,0.0,1.0,82,0.00,,,0.00,VWS V14.01,2013-09-16 03:40:00,
2013-09-15 23:41:00,66.4,58.6,30.08,SW,229,0.0,1.0,76,0.00,,,0.00,VWS V14.01,2013-09-16 03:41:00,
2013-09-15 23:46:00,66.4,58.6,30.08,SW,229,0.0,1.0,76,0.00,,,0.00,VWS V14.01,2013-09-16 03:46:00,
2013-09-15 23:50:00,63.9,58.6,30.09,SW,229,0.0,1.0,83,0.00,,,0.00,VWS V14.01,2013-09-16 03:50:00,
2013-09-15 23:51:00,66.3,58.9,30.08,SW,229,0.0,1.0,77,0.00,,,0.00,VWS V14.01,2013-09-16 03:51:00,
2013-09-15 23:56:00,66.1,58.7,30.08,SW,229,0.0,1.0,77,0.00,,,0.00,VWS V14.01,2013-09-16 03:56:00,